Location: Newark
(7.0858°N, 171.3717°E)
Time: 20:24:57
(UTC+00:00)

Tiros 1 - Pass Details

Date: 03 December 2020
Orbit: 630 x 663 km, 48.4° (Epoch: 18 January)

Event Time Altitude Azimuth Distance (km) Brightness Sun altitude
Rises 22:59:06 0° 212° (SSW) 2,955 10.7 53.9°
Reaches altitude 10° 23:01:27 10° 209° (SSW) 2,050 10.1 54.3°
Maximum altitude 23:06:07 61° 129° (SE) 739 9.8 54.9°
Drops below altitude 10° 23:10:49 10° 48° (NE) 2,064 9.8 55.5°
Sets 23:13:11 0° 45° (NE) 2,977 10.5 55.8°
